Terminal Aerodrome Forecast
Issued by NWS

Home | Current Version | Previous Version | Text Only | Print | Product List | Glossary On
Versions: 1 2 3 4 5 6 7 8 9 10 11 12 13 14 15 16 17 18 19 20 21 22 23 24 25 26 27 28 29 30 31 32 33 34 35 36 37 38 39 40 41 42 43 44 45 46 47 48 49 50
000
FTUS41 KCTP 012332
TAFAOO
TAF
KAOO 012332Z 0200/0224 22005KT 3SM -SN BR OVC018
      TEMPO 0201/0203 3/4SM -SN BR OVC009
     FM020300 24008KT 4SM -SHSN BR OVC020
     FM020600 29010KT 6SM -SHSN BR OVC020
     FM021200 29014G21KT P6SM BKN035
     FM021800 30014G21KT P6SM BKN060=

USA.gov is the U.S. government's official web portal to all federal, state and local government web resources and services.